Time,TemperatureF,DewpointF,PressureIn,WindDirection,WindDirectionDegrees,WindSpeedMPH,WindSpeedGustMPH,Humidity,HourlyPrecipIn,Conditions,Clouds,dailyrainin,SoftwareType,DateUTC
2013-03-06 00:14:00,27.8,23.0,30.06,ENE,74,3.0,5.0,83,0.00,,,0.00,weatherlink.com 1.10,2013-03-06 05:14:00,
2013-03-06 00:29:00,28.1,24.0,30.06,East,80,6.0,6.0,83,0.00,,,0.00,weatherlink.com 1.10,2013-03-06 05:29:00,
2013-03-06 00:44:00,28.7,24.0,30.06,East,90,5.0,7.0,82,0.00,,,0.00,weatherlink.com 1.10,2013-03-06 05:44:00,
2013-03-06 00:59:00,28.6,24.0,30.07,East,92,5.0,6.0,82,0.00,,,0.00,weatherlink.com 1.10,2013-03-06 05:59:00,
2013-03-06 01:14:00,28.7,24.0,30.06,East,96,8.0,8.0,82,0.00,,,0.00,weatherlink.com 1.10,2013-03-06 06:14:00,
2013-03-06 01:29:00,29.0,25.0,30.07,ESE,105,7.0,10.0,83,0.00,,,0.00,weatherlink.com 1.10,2013-03-06 06:29:00,
2013-03-06 01:44:00,29.3,25.0,30.07,East,83,3.0,10.0,84,0.00,,,0.00,weatherlink.com 1.10,2013-03-06 06:44:00,
2013-03-06 01:59:00,29.5,26.0,30.07,East,85,5.0,11.0,85,0.00,,,0.00,weatherlink.com 1.10,2013-03-06 06:59:00,
2013-03-06 02:14:00,29.7,25.0,30.08,East,80,7.0,11.0,84,0.00,,,0.00,weatherlink.com 1.10,2013-03-06 07:14:00,
2013-03-06 02:29:00,29.8,26.0,30.08,East,90,6.0,11.0,85,0.00,,,0.00,weatherlink.com 1.10,2013-03-06 07:29:00,
2013-03-06 02:44:00,29.8,26.0,30.08,East,83,8.0,13.0,85,0.00,,,0.00,weatherlink.com 1.10,2013-03-06 07:44:00,
2013-03-06 03:00:00,29.8,26.0,30.08,ESE,109,7.0,13.0,86,0.00,,,0.00,weatherlink.com 1.10,2013-03-06 08:00:00,
2013-03-06 03:15:00,29.8,26.0,30.08,East,83,5.0,15.0,86,0.00,,,0.00,weatherlink.com 1.10,2013-03-06 08:15:00,
2013-03-06 03:30:00,29.9,26.0,30.08,East,79,15.0,15.0,86,0.00,,,0.00,weatherlink.com 1.10,2013-03-06 08:30:00,
2013-03-06 03:45:00,29.8,26.0,30.08,ENE,61,9.0,14.0,86,0.00,,,0.00,weatherlink.com 1.10,2013-03-06 08:45:00,
2013-03-06 04:00:00,29.6,26.0,30.08,East,101,6.0,13.0,86,0.00,,,0.00,weatherlink.com 1.10,2013-03-06 09:00:00,
2013-03-06 04:15:00,29.5,26.0,30.08,East,82,6.0,12.0,87,0.00,,,0.00,weatherlink.com 1.10,2013-03-06 09:15:00,
2013-03-06 04:30:00,29.4,26.0,30.09,East,98,8.0,16.0,87,0.00,,,0.00,weatherlink.com 1.10,2013-03-06 09:30:00,
2013-03-06 04:45:00,29.4,26.0,30.09,East,89,8.0,14.0,87,0.00,,,0.00,weatherlink.com 1.10,2013-03-06 09:45:00,
2013-03-06 05:00:00,29.2,26.0,30.10,ESE,106,8.0,13.0,87,0.00,,,0.00,weatherlink.com 1.10,2013-03-06 10:00:00,
2013-03-06 05:15:00,29.1,26.0,30.11,ESE,104,11.0,13.0,87,0.00,,,0.00,weatherlink.com 1.10,2013-03-06 10:15:00,
2013-03-06 05:30:00,29.3,26.0,30.11,ESE,105,9.0,13.0,87,0.00,,,0.00,weatherlink.com 1.10,2013-03-06 10:30:00,
2013-03-06 05:45:00,29.4,26.0,30.11,East,101,10.0,15.0,87,0.00,,,0.00,weatherlink.com 1.10,2013-03-06 10:45:00,
2013-03-06 06:00:00,29.6,26.0,30.13,ESE,107,5.0,13.0,87,0.00,,,0.00,weatherlink.com 1.10,2013-03-06 11:00:00,
2013-03-06 06:15:00,29.8,26.0,30.14,East,96,3.0,9.0,87,0.00,,,0.00,weatherlink.com 1.10,2013-03-06 11:15:00,
2013-03-06 06:30:00,29.8,26.0,30.14,ENE,63,5.0,7.0,87,0.00,,,0.00,weatherlink.com 1.10,2013-03-06 11:30:00,
2013-03-06 06:45:00,29.8,27.0,30.14,ESE,106,10.0,10.0,88,0.00,,,0.00,weatherlink.com 1.10,2013-03-06 11:45:00,
2013-03-06 07:00:00,29.9,27.0,30.15,East,88,3.0,8.0,88,0.00,,,0.00,weatherlink.com 1.10,2013-03-06 12:00:00,
2013-03-06 07:15:00,29.8,26.0,30.15,East,90,6.0,10.0,87,0.00,,,0.00,weatherlink.com 1.10,2013-03-06 12:15:00,
2013-03-06 07:30:00,30.0,27.0,30.16,ENE,78,3.0,10.0,87,0.00,,,0.00,weatherlink.com 1.10,2013-03-06 12:30:00,
2013-03-06 07:45:00,30.3,27.0,30.16,ENE,78,4.0,8.0,86,0.00,,,0.00,weatherlink.com 1.10,2013-03-06 12:45:00,
2013-03-06 08:00:00,30.5,27.0,30.16,East,89,5.0,8.0,85,0.00,,,0.00,weatherlink.com 1.10,2013-03-06 13:00:00,
2013-03-06 08:15:00,30.7,27.0,30.17,East,88,2.0,7.0,85,0.00,,,0.00,weatherlink.com 1.10,2013-03-06 13:15:00,
2013-03-06 08:30:00,31.2,27.0,30.16,East,92,2.0,5.0,84,0.00,,,0.00,weatherlink.com 1.10,2013-03-06 13:30:00,
2013-03-06 08:45:00,30.9,27.0,30.16,East,98,7.0,8.0,85,0.00,,,0.00,weatherlink.com 1.10,2013-03-06 13:45:00,
2013-03-06 09:00:00,31.6,27.0,30.16,East,89,6.0,11.0,83,0.00,,,0.00,weatherlink.com 1.10,2013-03-06 14:00:00,
2013-03-06 09:15:00,32.1,27.0,30.16,East,97,8.0,10.0,82,0.00,,,0.00,weatherlink.com 1.10,2013-03-06 14:15:00,
2013-03-06 09:30:00,32.2,28.0,30.16,ESE,121,7.0,9.0,83,0.00,,,0.00,weatherlink.com 1.10,2013-03-06 14:30:00,
2013-03-06 09:45:00,32.4,28.0,30.17,ENE,74,3.0,11.0,82,0.00,,,0.00,weatherlink.com 1.10,2013-03-06 14:45:00,
2013-03-06 10:00:00,32.3,27.0,30.16,ENE,63,4.0,8.0,82,0.00,,,0.00,weatherlink.com 1.10,2013-03-06 15:00:00,
2013-03-06 10:15:00,32.9,28.0,30.17,East,96,5.0,10.0,83,0.00,,,0.00,weatherlink.com 1.10,2013-03-06 15:15:00,
2013-03-06 10:30:00,33.5,29.0,30.17,ENE,76,5.0,10.0,82,0.00,,,0.00,weatherlink.com 1.10,2013-03-06 15:30:00,
2013-03-06 10:45:00,33.7,29.0,30.18,ENE,57,5.0,10.0,82,0.00,,,0.00,weatherlink.com 1.10,2013-03-06 15:45:00,
2013-03-06 11:00:00,34.0,29.0,30.18,NE,52,4.0,8.0,82,0.00,,,0.00,weatherlink.com 1.10,2013-03-06 16:00:00,
2013-03-06 11:15:00,33.3,29.0,30.17,NNE,33,4.0,10.0,84,0.00,,,0.00,weatherlink.com 1.10,2013-03-06 16:15:00,
2013-03-06 11:30:00,32.9,29.0,30.18,NE,36,4.0,9.0,85,0.00,,,0.00,weatherlink.com 1.10,2013-03-06 16:30:00,
2013-03-06 11:45:00,32.4,28.0,30.17,NE,51,4.0,9.0,85,0.00,,,0.00,weatherlink.com 1.10,2013-03-06 16:45:00,
2013-03-06 12:00:00,32.8,29.0,30.18,NE,34,7.0,9.0,85,0.00,,,0.00,weatherlink.com 1.10,2013-03-06 17:00:00,
2013-03-06 12:16:00,32.5,29.0,30.18,NNE,12,8.0,11.0,85,0.00,,,0.00,weatherlink.com 1.10,2013-03-06 17:16:00,
2013-03-06 12:30:00,32.8,29.0,30.18,North,350,7.0,10.0,85,0.00,,,0.00,weatherlink.com 1.10,2013-03-06 17:30:00,
2013-03-06 12:45:00,32.8,29.0,30.18,North,5,8.0,11.0,85,0.00,,,0.00,weatherlink.com 1.10,2013-03-06 17:45:00,
2013-03-06 13:01:00,33.1,29.0,30.17,NNE,12,7.0,10.0,85,0.00,,,0.00,weatherlink.com 1.10,2013-03-06 18:01:00,
2013-03-06 13:16:00,32.8,29.0,30.17,NNW,345,8.0,12.0,86,0.00,,,0.00,weatherlink.com 1.10,2013-03-06 18:16:00,
2013-03-06 13:31:00,32.9,29.0,30.17,North,351,8.0,13.0,86,0.00,,,0.00,weatherlink.com 1.10,2013-03-06 18:31:00,
2013-03-06 13:46:00,32.7,29.0,30.17,North,355,9.0,15.0,87,0.00,,,0.00,weatherlink.com 1.10,2013-03-06 18:46:00,
2013-03-06 14:01:00,32.7,29.0,30.17,NNE,21,10.0,14.0,86,0.00,,,0.00,weatherlink.com 1.10,2013-03-06 19:01:00,
2013-03-06 14:16:00,32.8,29.0,30.17,North,360,7.0,13.0,86,0.00,,,0.00,weatherlink.com 1.10,2013-03-06 19:16:00,
2013-03-06 14:31:00,32.7,29.0,30.17,North,360,10.0,15.0,87,0.00,,,0.00,weatherlink.com 1.10,2013-03-06 19:31:00,
2013-03-06 14:46:00,32.9,30.0,30.17,NNE,25,10.0,12.0,87,0.00,,,0.00,weatherlink.com 1.10,2013-03-06 19:46:00,
2013-03-06 15:01:00,32.8,29.0,30.17,NNE,19,11.0,13.0,87,0.00,,,0.00,weatherlink.com 1.10,2013-03-06 20:01:00,
2013-03-06 15:16:00,32.7,29.0,30.18,North,9,7.0,12.0,87,0.00,,,0.00,weatherlink.com 1.10,2013-03-06 20:16:00,
2013-03-06 15:31:00,32.7,30.0,30.18,North,5,9.0,9.0,88,0.00,,,0.00,weatherlink.com 1.10,2013-03-06 20:31:00,
2013-03-06 15:46:00,32.7,29.0,30.18,North,10,7.0,10.0,87,0.00,,,0.00,weatherlink.com 1.10,2013-03-06 20:46:00,
2013-03-06 16:01:00,32.6,29.0,30.18,North,5,5.0,10.0,87,0.00,,,0.00,weatherlink.com 1.10,2013-03-06 21:01:00,
2013-03-06 16:16:00,32.5,29.0,30.18,NNW,346,9.0,11.0,87,0.00,,,0.00,weatherlink.com 1.10,2013-03-06 21:16:00,
2013-03-06 16:31:00,32.5,29.0,30.18,NNW,344,8.0,10.0,88,0.00,,,0.00,weatherlink.com 1.10,2013-03-06 21:31:00,
2013-03-06 16:46:00,32.6,30.0,30.18,North,360,13.0,13.0,88,0.00,,,0.00,weatherlink.com 1.10,2013-03-06 21:46:00,
2013-03-06 17:01:00,32.6,30.0,30.18,NNE,30,9.0,12.0,89,0.00,,,0.00,weatherlink.com 1.10,2013-03-06 22:01:00,
2013-03-06 17:16:00,32.4,30.0,30.18,North,5,10.0,13.0,90,0.00,,,0.00,weatherlink.com 1.10,2013-03-06 22:16:00,
2013-03-06 17:31:00,32.2,30.0,30.18,NNE,30,7.0,15.0,91,0.00,,,0.00,weatherlink.com 1.10,2013-03-06 22:31:00,
2013-03-06 17:46:00,32.1,30.0,30.18,North,5,8.0,14.0,92,0.00,,,0.00,weatherlink.com 1.10,2013-03-06 22:46:00,
2013-03-06 18:01:00,32.0,30.0,30.18,North,5,7.0,14.0,93,0.00,,,0.00,weatherlink.com 1.10,2013-03-06 23:01:00,
2013-03-06 18:16:00,32.0,30.0,30.18,NNE,22,8.0,13.0,93,0.00,,,0.00,weatherlink.com 1.10,2013-03-06 23:16:00,
2013-03-06 18:31:00,31.9,30.0,30.19,North,10,8.0,14.0,93,0.00,,,0.00,weatherlink.com 1.10,2013-03-06 23:31:00,
2013-03-06 18:46:00,32.0,31.0,30.19,NNE,30,7.0,14.0,94,0.00,,,0.00,weatherlink.com 1.10,2013-03-06 23:46:00,
2013-03-06 19:01:00,32.0,31.0,30.20,North,5,9.0,14.0,94,0.00,,,0.00,weatherlink.com 1.10,2013-03-07 00:01:00,
2013-03-06 19:16:00,32.0,31.0,30.19,NNE,13,7.0,12.0,95,0.00,,,0.00,weatherlink.com 1.10,2013-03-07 00:16:00,
2013-03-06 19:31:00,31.8,31.0,30.20,NNE,26,8.0,12.0,95,0.00,,,0.00,weatherlink.com 1.10,2013-03-07 00:31:00,
2013-03-06 19:46:00,31.7,31.0,30.20,NNE,32,5.0,10.0,95,0.00,,,0.00,weatherlink.com 1.10,2013-03-07 00:46:00,
2013-03-06 20:01:00,31.5,30.0,30.20,North,360,8.0,14.0,95,0.00,,,0.00,weatherlink.com 1.10,2013-03-07 01:01:00,
2013-03-06 20:16:00,31.3,30.0,30.20,NNE,28,8.0,16.0,95,0.00,,,0.00,weatherlink.com 1.10,2013-03-07 01:16:00,
2013-03-06 20:31:00,30.9,30.0,30.20,North,355,13.0,18.0,95,0.00,,,0.00,weatherlink.com 1.10,2013-03-07 01:31:00,
2013-03-06 20:46:00,30.4,29.0,30.21,NNE,15,13.0,18.0,96,0.00,,,0.00,weatherlink.com 1.10,2013-03-07 01:46:00,
2013-03-06 21:01:00,30.1,29.0,30.21,North,9,12.0,18.0,96,0.00,,,0.00,weatherlink.com 1.10,2013-03-07 02:01:00,
2013-03-06 21:16:00,29.7,29.0,30.21,NNE,28,16.0,22.0,96,0.00,,,0.00,weatherlink.com 1.10,2013-03-07 02:16:00,
2013-03-06 21:31:00,29.4,28.0,30.22,NNE,24,17.0,22.0,96,0.00,,,0.00,weatherlink.com 1.10,2013-03-07 02:31:00,
2013-03-06 21:46:00,29.0,28.0,30.22,NNE,15,10.0,28.0,96,0.00,,,0.00,weatherlink.com 1.10,2013-03-07 02:46:00,
2013-03-06 22:01:00,28.9,28.0,30.23,North,360,13.0,21.0,95,0.00,,,0.00,weatherlink.com 1.10,2013-03-07 03:01:00,
2013-03-06 22:16:00,28.5,27.0,30.23,NE,44,13.0,20.0,95,0.00,,,0.00,weatherlink.com 1.10,2013-03-07 03:16:00,
2013-03-06 22:31:00,28.1,27.0,30.23,North,360,15.0,20.0,95,0.00,,,0.00,weatherlink.com 1.10,2013-03-07 03:31:00,
2013-03-06 22:46:00,28.0,27.0,30.23,North,360,15.0,20.0,94,0.00,,,0.00,weatherlink.com 1.10,2013-03-07 03:46:00,
2013-03-06 23:01:00,27.8,26.0,30.23,North,5,12.0,21.0,93,0.00,,,0.00,weatherlink.com 1.10,2013-03-07 04:01:00,
2013-03-06 23:16:00,27.8,26.0,30.23,North,351,12.0,20.0,91,0.00,,,0.00,weatherlink.com 1.10,2013-03-07 04:16:00,
2013-03-06 23:31:00,27.8,25.0,30.24,NNE,12,12.0,19.0,90,0.00,,,0.00,weatherlink.com 1.10,2013-03-07 04:31:00,
2013-03-06 23:46:00,27.5,25.0,30.25,North,5,10.0,21.0,89,0.00,,,0.00,weatherlink.com 1.10,2013-03-07 04:46:00,